Location: Lake Sonoma
(38.7200°N, 123.0564°W)
Time: 09:06:24
(UTC-07:00)

Daily predictions for brighter satellites

Satellite Brightness Start Highest point End
(mag) Time Altitude Azimuth Time Altitude Azimuth Time Altitude Azimuth
Cosmos 2263 Rocket 3.8 21:04:26 10° SW 21:09:48 42° WNW 21:15:11 10° N
GENESIS II 4.2 21:06:00 10° SSW 21:09:53 90° ESE 21:13:49 10° NNE
NOSS 8 (A) 4.4 21:07:05 10° SW 21:10:26 80° WNW 21:13:37 10° NNE
Resurs 1-3 3.7 21:10:08 10° SSE 21:14:30 89° WSW 21:18:55 10° NNW
Cosmos 1812 Rocket 3.8 21:11:19 10° NNW 21:15:41 72° W 21:20:01 10° S
Thor Agena Rocket 3.8 21:13:27 10° N 21:18:33 77° WNW 21:23:34 10° SSW
Cosmos 1437 3.9 21:19:46 10° NNE 21:22:32 27° ENE 21:25:11 11° SE
ATLAS 2AS CENTAUR R/B 3.1 21:15:22 10° SSW 21:23:00 68° ESE 21:31:03 10° NE
Iridium 4 Rocket 3.7 21:17:32 10° SSE 21:23:05 61° E 21:28:13 10° N
Cosmos 1953 Rocket 3.8 21:19:06 10° SSE 21:23:17 49° E 21:27:32 10° NNE
In-Cosmos 22 4.3 21:18:53 10° S 21:24:18 59° E 21:29:53 10° NNE
Meteor 2-5 Rocket 3.9 21:19:24 10° S 21:25:20 81° E 21:31:16 10° NNE
BREEZE-M R/B 4.2 21:25:35 10° W 21:28:05 19° SW 21:30:02 10° S
Cosmos 1758 Rocket 3.5 21:23:58 10° S 21:28:24 73° E 21:32:48 10° NNE
Cosmos 1674 3.9 21:25:25 10° SSE 21:28:35 25° E 21:31:46 10° NNE
Cosmos 1707 4.5 21:25:17 10° SW 21:28:49 35° WNW 21:32:23 10° N
ERS-1 Rocket 4.2 21:26:47 10° ESE 21:30:54 26° ENE 21:35:01 10° NNE
Meteor 1-16 Rocket 4.4 21:27:24 10° N 21:33:00 82° W 21:38:45 10° S
USA 186 4.1 21:32:13 10° SSW 21:34:44 21° W 21:37:09 10° NW
Cosmos 1726 3.8 21:36:59 10° NNE 21:39:48 20° ENE 21:41:48 14° ESE
ERS-2 2.7 21:36:23 10° S 21:39:59 58° WSW 21:43:37 10° NNW
Resurs 01 Rocket 2.7 21:38:40 10° S 21:42:52 45° W 21:47:08 10° NNW
Terra 4.0 21:43:05 10° ENE 21:44:12 11° ENE 21:45:19 10° NE
Cosmos 921 Rocket 3.5 21:42:42 10° N 21:47:04 48° ENE 21:50:23 16° SE
OAO 3 Rocket 3.4 21:44:26 10° W 21:49:18 55° S 21:53:18 15° ESE
USA 215 3.4 21:46:11 13° SE 21:52:04 77° SW 21:58:39 10° NW
Cosmos 1315 Rocket 3.8 21:50:52 10° SSW 21:54:47 49° WNW 21:58:47 10° N
Cosmos 1461 3.9 21:52:22 10° S 21:56:23 31° ESE 22:00:31 10° NE
SL-8 R/B 4.3 21:51:54 10° WSW 21:56:41 60° NNW 22:01:28 10° NE
NOSS 3-4 (A) 4.0 21:55:14 10° S 22:00:45 36° ESE 22:06:24 10° NE
NOSS 3-4 (C) 4.0 21:55:22 10° S 22:00:50 35° ESE 22:06:28 10° NE
ARGOS 3.2 21:59:18 13° SSE 22:04:14 88° WSW 22:09:42 10° NNW
Cosmos 2278 Rocket 2.8 22:00:36 13° SSE 22:04:59 36° ESE 22:10:07 10° NE
MetOp-A 4.2 22:05:29 14° S 22:10:08 82° WSW 22:15:31 10° NNW
Cosmos 220 Rocket 4.0 22:07:44 14° S 22:11:12 54° ESE 22:15:19 10° NNE
APEX 4.2 22:10:43 10° N 22:13:36 29° ENE 22:14:54 23° E
KORONAS-FOTON 3.7 22:15:30 17° S 22:18:25 86° E 22:22:22 10° N
SL-08 RB Rocket 3.9 22:17:30 19° S 22:20:52 75° WSW 22:25:33 10° NNW
SL-14 R/B 3.9 22:20:17 30° SE 22:21:16 35° E 22:24:53 10° NNE
Cosmos 1844 Rocket 3.6 22:15:52 10° SW 22:21:21 51° WNW 22:26:52 10° NNE
Cosmos 1745 Rocket 4.1 22:18:42 10° N 22:24:57 60° E 22:28:39 25° SSE
COSMOS 2406 3.2 22:19:21 10° NNW 22:25:09 82° ENE 22:28:31 26° SSE
Cosmos 1346 Rocket 3.9 22:23:20 10° NNW 22:27:08 41° W 22:30:09 15° SSW
Cosmos 2084 4.4 22:23:57 10° NW 22:27:27 33° WSW 22:29:15 22° SSW
SPOT 5 3.2 22:24:53 27° SE 22:27:35 58° ENE 22:32:45 10° N
SL-08 R/B 4.4 22:21:50 10° N 22:28:01 81° E 22:32:12 22° S
Cosmos 1844 4.3 22:22:32 10° SW 22:28:07 59° WNW 22:33:50 10° NNE
NOSS 2-2 (D) 4.2 22:29:52 29° ESE 22:29:52 29° ESE 22:33:00 10° NE
Cosmos 807 4.3 22:29:27 47° ESE 22:29:38 48° E 22:32:43 10° NNE
Cosmos 1110 Rocket 4.2 22:25:46 10° NNW 22:30:55 67° WSW 22:34:03 24° S
Cosmos-2242 4.1 22:27:28 10° NNW 22:31:37 41° W 22:35:05 14° SSW
Lacrosse 5 4.5 22:30:56 10° W 22:34:55 23° NNW 22:38:54 10° NNE
ATLAS 5 CENTAUR R/B 1.9 22:37:14 36° SSE 22:38:19 43° ESE 22:42:49 10° NE
Cosmos 1626 3.2 22:40:51 29° E 22:40:51 29° E 22:43:54 10° NNE
Helios 1A 2.9 22:41:42 41° SSE 22:43:07 77° ENE 22:47:20 10° N
Cosmos 1331 Rocket 4.4 22:38:04 10° NNW 22:43:11 58° WSW 22:46:02 26° S
SPOT 1/Viking Rocket 3.5 22:41:25 32° SSE 22:43:50 80° ENE 22:48:59 10° N
H-2A R/B 2.9 22:40:01 17° SSW 22:43:54 46° W 22:49:06 10° NNW
ATLAS 3B R/B 2.5 22:37:20 10° NNW 22:43:59 88° ENE 22:47:23 31° SSE
Helios 1B rocket 2.5 22:41:27 10° NNE 22:45:30 57° E 22:46:22 46° SSE
USA 238 DEB 4.0 22:41:27 10° NW 22:48:33 67° WSW 22:52:33 28° SSE
USA 238 4.0 22:41:33 10° NW 22:48:40 68° WSW 22:52:38 29° SSE
Cosmos 2297 4.5 22:48:46 30° ESE 22:49:26 31° ESE 22:54:24 10° NE
S3M 4.3 22:44:53 13° SSW 22:50:37 70° W 22:57:02 10° N
Cosmos 1340 3.1 22:47:17 10° NNW 22:51:00 55° W 22:52:11 37° SSW
Cosmos 1842 Rocket 3.6 22:47:36 10° NNW 22:51:57 73° W 22:53:33 38° S
Cosmos 2082 Rocket 3.4 22:49:21 10° N 22:54:24 31° ENE 22:56:41 24° E
Cosmos 1833 Rocket 3.6 22:49:45 10° N 22:54:53 35° ENE 22:57:01 26° E
NOSS 2-2 (C) 3.2 22:55:16 59° SE 22:55:27 60° ESE 22:59:31 10° NE
ATLAS 3B CENTAUR R/B 3.9 22:41:39 10° WSW 22:58:01 39° S 23:01:27 30° SE
Cosmos 1709 Rocket 4.2 22:52:06 10° N 22:58:11 54° E 23:00:25 36° SE
NOSS 3-2 (A) 4.0 22:52:30 10° NW 23:00:12 87° WSW 23:04:29 33° SSE
Landsat 7 3.8 23:00:13 43° S 23:01:48 82° WSW 23:06:36 10° NNW
CZ-2C R/B 3.1 22:56:52 10° NNE 23:01:54 39° E 23:02:37 37° ESE
Spot 1 4.2 23:02:42 51° SE 23:03:35 65° ENE 23:08:09 10° N
Cosmos 1455 3.9 23:06:30 10° NNE 23:09:00 21° ENE 23:09:00 21° ENE
ERS-1 Rocket 4.2 23:06:45 20° SSW 23:09:30 34° W 23:14:05 10° NNW
Cosmos 1300 2.8 23:07:14 10° NNW 23:11:01 64° W 23:11:27 58° SW
Cosmos 1302 Rocket 4.3 23:07:06 10° NNW 23:12:18 58° WSW 23:14:04 38° SSW
Aureole 3 Rocket 4.2 23:11:17 34° SSE 23:14:43 68° E 23:20:26 10° NNE
Cosmos 1726 4.2 23:12:01 10° NW 23:14:58 22° W 23:16:22 18° WSW
RESURS DK-1 2.8 23:17:46 48° ENE 23:17:46 48° ENE 23:21:09 10° NNE
Terra 1.8 23:20:16 57° S 23:21:14 81° WSW 23:26:02 10° NNW
Cosmos 2221 2.6 23:17:00 10° NNW 23:21:17 66° W 23:21:54 57° SW
Okean 3 Rocket 3.4 23:21:36 73° SSE 23:21:57 81° E 23:26:21 10° N
Meteor 1-29 3.4 23:19:57 10° N 23:23:10 56° WNW 23:23:10 56° WNW
NOSS 3-2 (C) 4.0 23:18:28 10° NW 23:26:10 82° WSW 23:29:39 40° SSE
Cosmos 1992 Rocket 4.0 23:22:54 10° NNW 23:28:06 65° ENE 23:28:59 55° ESE
EO 1 Delta rocket 4.3 23:24:01 10° NNE 23:30:21 64° E 23:31:21 54° SE
OAO 3 Rocket 4.5 23:28:04 10° W 23:31:06 28° SW 23:31:06 28° SW
Cosmos 1328 4.0 23:32:34 62° W 23:32:41 63° W 23:36:37 10° N
Cosmos 2315 Rocket 4.1 23:31:49 37° SSW 23:34:31 76° W 23:40:54 10° N
COBE Rocket 4.1 23:29:48 10° NNE 23:34:50 55° E 23:35:05 54° ESE
CZ-2C R/B 3.5 23:41:41 46° SSW 23:43:15 64° W 23:48:59 10° NNW
ADEOS Rocket 4.0 23:39:55 10° NE 23:45:18 31° E 23:45:35 31° ESE
Meteor 1-11 4.2 23:45:28 55° SSW 23:46:48 87° W 23:52:38 10° N
Cosmos 2278 Rocket 3.9 23:44:05 10° WSW 23:49:04 31° WNW 23:54:04 10° N
Cosmos 1441 Rocket 4.4 23:47:07 10° N 23:49:46 34° NE 23:49:46 34° NE
CENTAUR R/B 3.2 23:43:02 10° NNW 23:51:08 77° NE 23:54:32 41° SE
Spot 4 3.7 23:51:21 74° ESE 23:51:34 76° ENE 23:56:27 10° N
Cosmos 2184 Rocket 4.2 23:45:52 10° N 23:52:06 58° E 23:53:16 50° ESE
